{"data":{"norad_id":58326,"intl_designator":"2023-174BY","name":"PICO-01A003","alt_names":[],"object_type":"PAYLOAD","status":"ACTIVE","operator":null,"country":"IT","launch_date":"2023-11-11","launch_site_code":"AFWTR","launch_vehicle":null,"mission":null,"orbit_class":"UNKNOWN","rcs_meters":null,"size_class":null,"mass_kg":null,"dimensions":null,"purposes":[],"wikipedia_slug":null,"has_3d_model":false,"image_url":null,"decayed_at":null,"tle_current":{"epoch":"2026-05-25T05:09:29.475072Z","epoch_age_seconds":59973,"freshness":"FRESH","line1":"1 58326U 23174BY  26145.21492448  .00019075  00000+0  40537-3 0  9996","line2":"2 58326  97.3793 230.1693 0004852 230.4471 129.6350 15.45037706141862","mean_motion":15.45037706,"eccentricity":0.0004852,"inclination_deg":97.3793,"raan_deg":230.1693,"arg_perigee_deg":230.4471,"mean_anomaly_deg":129.635,"bstar":0.00040537,"rev_number":14186,"period_min":93.201608893291,"perigee_km":427.96335981958,"apogee_km":434.57120573559,"semimajor_km":6809.4042827776,"source":"CELESTRAK","updated_at":"2026-05-25T13:38:00.677828Z"}}}